Location: Huntsville
(41.2590°N, 111.7678°W)
Time: 00:51:57
(UTC+00:00)

Envisat - Pass Details

Date: 07 December 2021
Orbit: 764 x 766 km, 98.2° (Epoch: 16 January)

Event Time Altitude Azimuth Distance (km) Brightness Sun altitude
Rises 13:41:31 0° 358° (N) 3,241 6.0 -10.7°
Reaches altitude 10° 13:44:20 10° 343° (NNW) 2,310 5.1 -10.2°
Maximum altitude 13:48:01 21° 296° (WNW) 1,685 4.2 -9.5°
Drops below altitude 10° 13:51:42 10° 249° (WSW) 2,298 5.0 -8.9°
Sets 13:54:30 0° 233° (SW) 3,220 5.9 -8.4°
